FW8627 Weather Reports


time (UTC)temp
C
wind
direction
speed
KPH
gust
KPH
rain 1hr
cm
rain 24hr
cm
rain mn
cm
humidity
%
barometer
mb
20260507203045 12 207 4.8 19.3 0.00 1.19 0.00 40 1005.8
20260507202544 12 236 3.2 22.5 0.00 1.19 0.00 42 1005.8
20260507202043 12 31 1.6 22.5 0.00 1.19 0.00 44 1005.8
20260507201549 13 319 11.3 24.1 0.00 1.19 0.00 41 1005.8
20260507201044 12 355 6.4 24.1 0.00 1.19 0.00 44 1005.9
20260507200546 12 284 1.6 19.3 0.00 1.19 0.00 48 1005.9
20260507200049 12 360 3.2 12.9 0.00 1.19 0.00 47 1005.9
20260507195542 12 331 4.8 19.3 0.00 1.52 0.00 45 1005.9
20260507195044 12 336 9.7 19.3 0.00 1.52 0.00 44 1005.9
20260507194548 12 33 3.2 12.9 0.00 1.52 0.00 50 1006.0
20260507194042 12 237 3.2 12.9 0.00 1.52 0.00 48 1005.9
20260507193540 12 25 4.8 19.3 0.00 1.52 0.00 51 1006.0
20260507193041 12 342 4.8 19.3 0.00 1.52 0.00 46 1006.0
20260507192539 12 286 3.2 14.5 0.00 1.52 0.00 45 1006.2
20260507192038 12 336 3.2 16.1 0.00 1.52 0.00 44 1006.1
20260507191543 13 278 6.4 16.1 0.00 1.52 0.00 42 1006.0
20260507191039 13 40 6.4 22.5 0.00 1.52 0.00 44 1006.2
20260507190538 13 236 11.3 22.5 0.00 1.52 0.00 43 1006.1
20260507190037 13 279 9.7 33.8 0.00 1.52 0.00 42 1006.3
20260507185538 13 244 12.9 25.7 0.00 1.63 0.00 44 1006.2
20260507185038 12 263 11.3 24.1 0.00 1.63 0.00 44 1006.5
20260507184538 12 227 6.4 25.7 0.00 1.63 0.00 46 1006.5
20260507184037 13 310 11.3 27.4 0.00 1.63 0.00 40 1006.5
20260507183535 14 322 6.4 14.5 0.00 1.63 0.00 48 1006.5
20260507183043 13 329 4.8 14.5 0.00 1.63 0.00 47 1006.4
20260507182535 13 94 6.4 24.1 0.00 1.63 0.00 44 1006.6
20260507182035 13 309 9.7 29.0 0.00 1.63 0.00 43 1006.5
20260507181538 13 190 12.9 29.0 0.00 1.63 0.00 45 1006.5
20260507181035 13 46 6.4 32.2 0.00 1.63 0.00 47 1006.4
20260507180534 13 294 14.5 32.2 0.00 1.63 0.00 46 1006.4
20260507180035 13 142 3.2 22.5 0.00 1.63 0.00 53 1006.6
20260507175536 13 155 1.6 29.0 0.00 1.88 0.00 48 1006.5
20260507175033 13 192 11.3 29.0 0.00 1.88 0.00 43 1006.5
20260507174535 13 211 6.4 27.4 0.00 1.88 0.00 46 1006.6
20260507174032 13 275 9.7 27.4 0.00 1.88 0.00 49 1006.6
20260507173532 13 242 12.9 27.4 0.00 1.88 0.00 46 1006.4
20260507173034 13 215 11.3 19.3 0.00 1.88 0.00 50 1006.6
20260507172531 12 288 4.8 22.5 0.00 1.88 0.00 58 1006.9
20260507172030 12 360 3.2 22.5 0.00 1.88 0.00 51 1006.8
20260507171532 12 276 6.4 24.1 0.00 1.88 0.00 47 1006.9
20260507171030 12 279 12.9 30.6 0.00 1.88 0.00 47 1006.9
20260507170530 13 327 4.8 30.6 0.00 1.88 0.00 50 1007.0
20260507170029 13 302 12.9 30.6 0.00 1.88 0.00 55 1007.0
20260507165528 13 290 9.7 27.4 0.00 1.93 0.00 55 1006.9
20260507165028 12 302 3.2 17.7 0.00 1.93 0.00 53 1007.1
20260507164528 13 264 8.0 16.1 0.00 1.93 0.00 53 1007.1
20260507164027 12 346 3.2 19.3 0.00 1.93 0.00 61 1007.1
20260507163526 11 261 9.7 19.3 0.00 1.93 0.00 58 1007.2
20260507163028 12 249 8.0 19.3 0.00 1.93 0.00 64 1007.5
20260507162525 11 284 4.8 29.0 0.00 1.93 0.00 64 1007.6
20260507162024 10 259 11.3 29.0 0.00 1.93 0.00 60 1007.7
20260507161525 11 174 11.3 19.3 0.00 1.93 0.00 62 1007.8
20260507161023 11 5 3.2 12.9 0.00 1.93 0.00 64 1007.8
20260507160526 11 13 3.2 14.5 0.00 1.93 0.00 59 1007.7
20260507160030 12 309 4.8 14.5 0.00 1.93 0.00 67 1007.9
20260507155524 11 89 4.8 25.7 0.00 1.93 0.00 61 1007.8
20260507155020 11 244 4.8 25.7 0.00 1.93 0.00 63 1007.9
20260507154620 11 252 11.3 24.1 0.00 1.93 0.00 69 1008.0
20260507154020 10 267 11.3 25.7 0.00 1.93 0.00 66 1008.1
20260507153519 11 284 8.0 25.7 0.00 1.93 0.00 68 1008.0
20260507153018 11 32 6.4 27.4 0.00 1.93 0.00 69 1008.0
20260507152519 11 259 12.9 27.4 0.00 1.93 0.00 68 1007.9
20260507152018 11 287 11.3 25.7 0.00 1.93 0.00 67 1007.9
20260507151517 11 261 11.3 25.7 0.00 1.93 0.00 67 1007.9
20260507151016 11 281 9.7 19.3 0.00 1.93 0.00 69 1008.0
20260507150516 11 234 4.8 17.7 0.00 1.93 0.00 73 1008.1
20260507150017 11 51 4.8 17.7 0.00 1.93 0.00 73 1008.0
20260507145516 11 301 4.8 12.9 0.00 1.93 0.00 70 1008.1
20260507145016 11 12 3.2 16.1 0.00 1.93 0.00 71 1008.1
20260507144515 11 338 1.6 17.7 0.00 1.93 0.00 73 1008.1
20260507144015 11 325 8.0 17.7 0.00 1.93 0.00 71 1008.0
20260507143514 11 183 3.2 16.1 0.00 1.93 0.00 76 1008.0
20260507143031 11 279 8.0 14.5 0.00 1.93 0.00 76 1008.1
20260507142512 10 295 3.2 20.9 0.00 1.93 0.00 80 1008.1
20260507142011 9 184 4.8 24.1 0.00 1.93 0.00 78 1008.0
20260507141511 9 240 11.3 24.1 0.00 1.93 0.00 78 1008.1
20260507141012 10 215 9.7 20.9 0.00 1.93 0.00 78 1008.1
20260507140510 10 281 3.2 16.1 0.00 1.93 0.00 79 1008.0
20260507140010 10 278 3.2 12.9 0.00 1.93 0.00 80 1008.0
20260507135510 10 360 1.6 17.7 0.00 1.93 0.00 82 1008.0
20260507135010 8 263 3.2 17.7 0.00 1.93 0.00 82 1008.1
20260507134512 8 253 6.4 16.1 0.00 1.93 0.00 80 1008.1
20260507134011 8 247 4.8 20.9 0.00 1.93 0.00 80 1008.1
20260507133510 9 317 6.4 20.9 0.00 1.93 0.00 79 1008.3
20260507133008 10 303 8.0 22.5 0.00 1.93 0.00 80 1008.1
20260507132508 9 233 8.0 22.5 0.00 1.93 0.00 82 1008.1
20260507132009 9 236 11.3 17.7 0.00 1.93 0.00 79 1008.1
20260507131615 9 261 4.8 22.5 0.00 1.93 0.00 80 1008.2
20260507131007 9 261 4.8 20.9 0.00 1.93 0.00 81 1008.2
20260507130506 9 304 11.3 20.9 0.00 1.93 0.00 79 1008.2
20260507130012 9 197 1.6 16.1 0.00 1.93 0.00 82 1008.3
20260507125506 8 277 6.4 16.1 0.00 1.93 0.00 80 1008.3
20260507125004 8 275 1.6 14.5 0.00 1.93 0.00 82 1008.2
20260507124502 8 271 4.8 14.5 0.00 1.93 0.00 82 1008.0
20260507124101 8 261 1.6 12.9 0.00 1.93 0.00 85 1008.0
20260507123600 8 320 4.8 12.9 0.00 1.93 0.00 84 1007.9
20260507123113 8 313 6.4 12.9 0.00 1.93 0.00 84 1007.9
20260507122559 7 248 3.2 11.3 0.00 1.93 0.00 85 1007.8
20260507122058 7 223 4.8 9.7 0.00 1.93 0.00 86 1008.0
20260507121556 7 227 4.8 9.7 0.00 1.93 0.00 87 1008.1
20260507121054 7 277 1.6 9.7 0.00 1.93 0.00 89 1008.2
20260507120553 7 195 3.2 16.1 0.00 1.93 0.00 90 1008.1
20260507120053 7 243 8.0 16.1 0.00 1.93 0.00 88 1008.4
20260507115553 7 237 4.8 16.1 0.00 1.93 0.00 89 1008.3
20260507115053 6 290 6.4 11.3 0.00 1.93 0.00 90 1008.2
20260507114554 6 284 3.2 16.1 0.00 1.93 0.00 90 1008.1
20260507114054 6 209 3.2 16.1 0.00 1.93 0.00 91 1008.1
20260507113549 6 228 3.2 17.7 0.00 1.93 0.00 91 1008.2
20260507113049 6 272 8.0 17.7 0.00 1.93 0.00 92 1008.1
20260507112551 6 254 6.4 14.5 0.00 1.93 0.00 92 1008.0
20260507112050 6 271 3.2 14.5 0.00 1.93 0.00 93 1008.0
20260507111548 5 257 4.8 14.5 0.00 1.93 0.00 94 1007.9
20260507111048 5 294 4.8 19.3 0.00 1.93 0.00 95 1007.9
20260507110548 5 237 6.4 19.3 0.00 1.93 0.00 95 1008.0
20260507110050 5 226 6.4 16.1 0.00 1.93 0.00 96 1008.0
20260507105545 5 271 4.8 16.1 0.00 1.93 0.00 97 1008.1
20260507105045 5 253 6.4 17.7 0.00 1.93 0.00 98 1008.0
20260507104544 5 237 4.8 17.7 0.00 1.93 0.00 98 1007.9
20260507104043 5 247 4.8 11.3 0.00 1.93 0.00 97 1007.7
20260507103543 5 261 3.2 11.3 0.00 1.93 0.00 97 1007.6
20260507103043 5 229 4.8 9.7 0.00 1.93 0.00 97 1007.6
20260507102544 5 221 3.2 9.7 0.00 1.93 0.00 97 1007.7
20260507102042 5 264 4.8 14.5 0.00 1.93 0.00 98 1007.8
20260507101542 4 304 6.4 14.5 0.00 1.93 0.00 98 1007.8
20260507101041 4 280 4.8 12.9 0.00 1.93 0.00 98 1007.8
20260507100540 4 279 6.4 16.1 0.00 1.93 0.00 98 1007.8
20260507100052 4 277 3.2 11.3 0.00 1.93 0.00 98 1007.9
20260507095539 5 300 4.8 12.9 0.00 1.93 0.00 98 1007.8
20260507095041 5 224 6.4 14.5 0.00 1.93 0.00 98 1007.9
20260507094537 5 261 6.4 17.7 0.00 1.93 0.00 99 1007.9
20260507094037 5 282 6.4 19.3 0.00 1.93 0.00 99 1008.0
20260507093536 5 284 6.4 19.3 0.00 1.93 0.00 98 1008.0
20260507093036 5 238 4.8 9.7 0.00 1.93 0.00 98 1008.0
20260507092536 5 268 4.8 11.3 0.00 1.93 0.00 98 1007.9
20260507092032 5 199 6.4 12.9 0.00 1.93 0.00 97 1007.7
20260507091538 5 241 3.2 12.9 0.00 1.93 0.00 97 1007.5
20260507091032 5 291 4.8 12.9 0.00 1.93 0.00 97 1007.5
20260507090531 5 279 4.8 16.1 0.00 1.93 0.00 97 1007.6
20260507090031 5 263 4.8 19.3 0.00 1.93 0.00 98 1007.5
20260507085529 5 280 4.8 19.3 0.00 1.93 0.00 98 1007.6
20260507085029 5 271 6.4 14.5 0.00 1.93 0.00 98 1007.7
20260507084530 5 287 4.8 12.9 0.00 1.93 0.00 98 1007.5
20260507084028 5 279 3.2 12.9 0.00 1.93 0.00 98 1007.4
20260507083527 5 281 6.4 19.3 0.00 1.93 0.00 98 1007.3
20260507083027 5 275 6.4 19.3 0.00 1.93 0.00 98 1007.4
20260507082526 5 286 3.2 16.1 0.00 1.93 0.00 98 1007.3
20260507082025 5 279 4.8 16.1 0.00 1.93 0.00 99 1007.4
20260507081525 5 280 8.0 20.9 0.00 1.93 0.00 99 1007.5
20260507081023 5 301 9.7 20.9 0.00 1.93 0.00 99 1007.5
20260507080523 5 269 9.7 20.9 0.00 1.93 0.00 99 1007.3
20260507080022 6 277 9.7 19.3 0.00 1.93 0.00 99 1007.2
20260507075522 6 246 9.7 19.3 0.00 1.93 0.00 100 1007.1
20260507075021 6 257 11.3 19.3 0.00 1.93 0.00 100 1007.1
20260507074520 6 248 11.3 17.7 0.00 1.93 0.00 100 1007.2
20260507074023 6 262 8.0 14.5 0.00 1.93 0.00 100 1007.0
20260507073518 6 287 4.8 11.3 0.00 1.93 0.00 100 1006.9
20260507073018 6 292 1.6 11.3 0.00 1.93 0.00 100 1006.9
20260507072518 6 343 1.6 11.3 0.00 1.93 0.00 100 1006.7
20260507072015 6 267 3.2 11.3 0.00 1.93 0.00 100 1006.7
20260507071523 6 279 1.6 11.3 0.00 1.93 0.00 100 1006.6
20260507071020 6 257 3.2 11.3 0.00 1.93 0.00 100 1006.9
20260507070515 6 281 0.0 9.7 0.00 1.93 0.00 100 1006.7
20260507070014 6 266 1.6 11.3 0.00 1.93 0.00 100 1007.0
20260507065514 6 306 3.2 11.3 0.00 1.93 0.00 100 1007.2
20260507065013 6 264 3.2 9.7 0.00 1.93 0.00 100 1007.1
20260507064512 6 46 1.6 8.0 0.00 1.93 0.00 100 1006.9
20260507064015 6 284 3.2 8.0 0.00 1.93 0.00 100 1007.0
20260507063512 6 218 1.6 11.3 0.00 1.93 0.00 100 1006.9
20260507063011 6 261 4.8 12.9 0.00 1.93 0.00 100 1007.1
20260507062512 6 225 3.2 11.3 0.00 1.93 0.00 100 1006.8
20260507062009 6 221 1.6 12.9 0.00 1.93 0.00 100 1006.7
20260507061509 6 193 6.4 14.5 0.00 1.93 0.00 100 1006.6
20260507061010 6 212 4.8 20.9 0.00 1.93 0.00 100 1006.7
20260507060611 6 196 3.2 20.9 0.00 1.93 0.00 100 1006.6
20260507060008 6 221 6.4 17.7 0.00 1.93 0.00 100 1006.7
20260507055508 6 234 6.4 27.4 0.00 1.93 0.00 100 1006.6
20260507055007 6 221 8.0 27.4 0.00 1.93 0.00 100 1006.4
20260507054506 6 219 8.0 22.5 0.00 1.93 0.00 100 1006.2
20260507054006 6 266 6.4 24.1 0.00 1.93 0.00 100 1006.2
20260507053506 6 198 6.4 24.1 0.00 1.93 0.00 100 1006.4
20260507053006 6 257 9.7 29.0 0.00 1.93 0.00 100 1006.4
20260507052504 6 242 11.3 29.0 0.00 1.93 0.00 100 1006.4
20260507052003 6 259 12.9 24.1 0.00 1.93 0.00 100 1006.4
20260507051502 6 298 12.9 24.1 0.00 1.93 0.00 100 1006.4
20260507051002 6 266 9.7 22.5 0.00 1.93 0.00 100 1006.4
20260507050501 6 186 9.7 22.5 0.00 1.93 0.00 100 1006.3
20260507050100 6 255 9.7 24.1 0.00 1.93 0.00 100 1006.4
20260507045600 6 243 11.3 24.1 0.00 1.93 0.00 100 1006.4
20260507045059 6 236 12.9 19.3 0.00 1.93 0.00 100 1006.5
20260507044600 7 232 8.0 19.3 0.00 1.93 0.00 100 1006.3
20260507044057 7 259 9.7 16.1 0.00 1.93 0.00 100 1006.5
20260507043556 7 244 8.0 16.1 0.00 1.93 0.00 100 1006.5
20260507043058 7 240 8.0 19.3 0.03 1.93 0.00 100 1006.4
20260507042557 7 276 9.7 22.5 0.03 1.93 0.00 100 1006.5
20260507042053 7 288 8.0 22.5 0.03 1.93 0.00 100 1006.4
20260507041553 7 240 4.8 19.3 0.03 1.93 0.00 100 1006.1
20260507041053 7 208 9.7 25.7 0.03 1.93 0.00 100 1006.4
20260507040551 7 315 11.3 25.7 0.05 1.93 0.00 100 1006.3
20260507040049 7 94 6.4 25.7 0.05 1.93 0.00 100 1006.4
20260507035549 7 273 9.7 19.3 0.05 1.93 1.93 100 1006.4
20260507035048 7 271 8.0 19.3 0.05 1.93 1.93 100 1006.4
20260507034548 7 284 4.8 17.7 0.05 1.93 1.93 100 1006.3
20260507034047 7 242 6.4 19.3 0.05 1.93 1.93 100 1006.3
20260507033547 7 254 4.8 19.3 0.03 1.91 1.91 100 1006.4
20260507033046 7 265 6.4 20.9 0.03 1.91 1.91 100 1006.5
20260507032546 7 264 8.0 20.9 0.03 1.91 1.91 100 1006.3
20260507032044 7 281 6.4 20.9 0.03 1.91 1.91 100 1006.2
20260507031545 7 299 12.9 20.9 0.03 1.91 1.91 100 1006.4
20260507031044 7 258 4.8 17.7 0.05 1.91 1.91 100 1006.2
20260507030544 7 277 6.4 25.7 0.03 1.88 1.88 100 1006.2
20260507030042 7 281 11.3 25.7 0.03 1.88 1.88 100 1006.4
20260507025541 7 290 8.0 19.3 0.03 1.88 1.88 100 1006.4
20260507025041 7 236 8.0 19.3 0.03 1.88 1.88 100 1006.3
20260507024542 8 257 8.0 22.5 0.03 1.88 1.88 100 1006.1
20260507024040 7 188 11.3 22.5 0.03 1.88 1.88 100 1006.0
20260507023540 8 286 4.8 19.3 0.05 1.88 1.88 100 1005.8
20260507023043 8 266 6.4 20.9 0.05 1.88 1.88 100 1005.8
20260507022539 8 267 9.7 22.5 0.05 1.88 1.88 100 1005.7
20260507022038 8 288 11.3 29.0 0.05 1.88 1.88 100 1005.9
20260507021542 8 282 16.1 29.0 0.05 1.88 1.88 100 1005.7
20260507021036 8 294 9.7 22.5 0.03 1.85 1.85 100 1005.7
20260507020535 8 273 11.3 22.5 0.03 1.85 1.85 100 1005.8
20260507020036 8 263 11.3 30.6 0.03 1.85 1.85 100 1005.7
20260507015537 8 280 14.5 30.6 0.03 1.85 1.85 100 1005.6
20260507015034 9 268 9.7 22.5 0.03 1.85 1.85 100 1005.6
20260507014531 9 278 8.0 25.7 0.03 1.85 1.85 100 1005.6
20260507014029 9 233 9.7 25.7 0.03 1.85 1.85 100 1005.5
20260507013528 10 279 8.0 24.1 0.03 1.83 1.83 100 1005.7
20260507013027 10 259 11.3 24.1 0.03 1.83 1.83 100 1005.4
20260507012527 10 272 8.0 22.5 0.03 1.83 1.83 100 1005.3
20260507012026 10 237 9.7 22.5 0.03 1.83 1.83 100 1005.2
20260507011524 10 219 8.0 22.5 0.05 1.83 1.83 100 1005.2
20260507011023 10 254 11.3 22.5 0.05 1.83 1.83 100 1005.1
20260507010522 10 245 6.4 17.7 0.05 1.83 1.83 100 1005.1
20260507010026 11 243 6.4 19.3 0.10 1.83 1.83 100 1005.1
20260507005520 11 244 9.7 19.3 0.13 1.83 1.83 100 1005.2
20260507005018 11 268 6.4 19.3 0.15 1.83 1.83 100 1005.1
20260507004519 11 248 6.4 16.1 0.20 1.83 1.83 100 1004.9
20260507004017 11 277 6.4 19.3 0.30 1.83 1.83 100 1004.9
20260507003517 11 263 4.8 19.3 0.33 1.80 1.80 100 1004.9
20260507003015 11 295 3.2 19.3 0.33 1.80 1.80 100 1004.9
20260507002514 11 232 8.0 20.9 0.33 1.80 1.80 100 1004.7
20260507002016 11 306 6.4 20.9 0.36 1.80 1.80 100 1004.7
20260507001516 12 311 3.2 19.3 0.33 1.78 1.78 100 1004.7
20260507001010 12 269 9.7 19.3 0.38 1.78 1.78 100 1004.7
20260507000509 12 241 9.7 17.7 0.43 1.75 1.75 100 1004.6
20260507000009 12 269 6.4 16.1 0.51 1.73 1.73 100 1004.5
20260506235508 13 239 6.4 14.5 0.56 1.70 1.70 100 1004.3
20260506235009 13 256 6.4 16.1 0.58 1.65 1.65 100 1004.2
20260506234509 13 271 4.8 16.1 0.56 1.60 1.60 100 1004.2
20260506234007 14 231 4.8 12.9 0.48 1.50 1.50 100 1004.2
20260506233512 14 229 6.4 14.5 0.48 1.45 1.45 100 1004.0
20260506233011 14 244 4.8 9.7 0.51 1.45 1.45 100 1004.1
20260506232507 14 184 4.8 14.5 0.51 1.45 1.45 100 1004.0
20260506232006 14 276 6.4 14.5 0.48 1.42 1.42 100 1003.9
20260506231506 14 198 4.8 12.9 0.48 1.42 1.42 100 1003.9
20260506231010 14 199 3.2 12.9 0.41 1.37 1.37 100 1004.1
20260506230504 14 264 1.6 11.3 0.33 1.30 1.30 100 1004.1
20260506230014 14 259 1.6 11.3 0.23 1.30 1.19 100 1004.1
20260506225503 14 273 1.6 14.5 0.18 1.24 1.14 100 1004.1
20260506225003 14 221 1.6 14.5 0.10 1.17 1.07 100 1004.1
20260506224503 14 250 4.8 16.1 0.10 1.14 1.04 100 1004.1
20260506224002 14 217 4.8 17.7 0.08 1.12 1.02 100 1003.9
20260506223502 14 227 6.4 17.7 0.05 1.09 0.99 100 1004.1
20260506223002 14 207 4.8 19.3 0.05 1.07 0.97 100 1004.0
20260506222501 14 213 9.7 19.3 0.05 1.07 0.97 100 1004.1
20260506222100 14 250 8.0 14.5 0.05 1.07 0.97 100 1004.1
20260506221628 14 179 8.0 16.1 0.08 1.07 0.97 100 1004.1
20260506221059 14 202 6.4 14.5 0.08 1.07 0.97 100 1004.2
20260506220558 14 216 3.2 11.3 0.13 1.07 0.97 100 1004.4
20260506220129 14 194 4.8 14.5 0.15 1.07 0.97 100 1004.5
20260506215557 14 196 8.0 14.5 0.15 1.09 0.97 100 1004.5
20260506215056 14 212 6.4 14.5 0.15 1.09 0.97 100 1004.4
20260506214556 14 227 6.4 16.1 0.13 1.07 0.94 100 1004.4
20260506214055 14 234 6.4 16.1 0.15 1.07 0.94 100 1004.4
20260506213554 14 208 4.8 12.9 0.15 1.07 0.94 100 1004.5
20260506213106 14 192 3.2 8.0 0.13 1.04 0.91 100 1004.5
20260506212553 14 198 1.6 9.7 0.13 1.04 0.91 100 1004.5
20260506212052 14 192 3.2 11.3 0.13 1.04 0.91 100 1004.5
20260506211553 14 157 3.2 11.3 0.10 1.02 0.89 100 1004.5
20260506211050 14 180 0.0 9.7 0.13 1.02 0.89 100 1004.5
20260506210550 14 146 3.2 9.7 0.08 0.97 0.84 100 1004.6
20260506210056 14 159 1.6 6.4 0.05 0.94 0.81 100 1004.5
20260506205548 14 113 1.6 4.8 0.10 0.94 0.81 100 1004.5
20260506205049 14 133 0.0 6.4 0.18 0.94 0.81 100 1004.6
20260506204547 14 184 3.2 6.4 0.23 0.94 0.81 100 1004.8
20260506204045 14 182 3.2 11.3 0.25 0.91 0.79 100 1004.9
20260506203547 14 192 0.0 11.3 0.28 0.91 0.79 100 1004.9